Location: Passau
(48.5830°N, 13.4830°E)
Time: 21:43:05
(UTC+02:00)

S-56A Canister/Altair - Pass Details

Date: 20 May 2024
Orbit: 637 x 2489 km, 38.9° (Epoch: 16 June)

Event Time Altitude Azimuth Distance (km) Brightness Sun altitude
Rises 08:16:58 0° 230° (SW) 5,624 11.5 27.1°
Reaches altitude 10° 08:21:25 10° 223° (SW) 4,355 11.1 27.8°
Maximum altitude 08:31:02 35° 165° (SSE) 2,251 10.4 29.4°
Drops below altitude 10° 08:37:51 10° 103° (ESE) 3,063 12.2 30.6°
Sets 08:40:26 0° 93° (E) 3,802 12.3 31.0°
